Location: Gull Harbor
(47.1000°N, 122.9000°W)
Time: 09:41:38
(UTC-08:00)

Envisat - Pass Details

Date: 27 October 2019
Orbit: 764 x 766 km, 98.1° (Epoch: 18 November)

Event Time Altitude Azimuth Distance (km) Brightness Sun altitude
Rises 06:34:36 0° 33° (NNE) 3,242 6.6 -12.9°
Reaches altitude 10° 06:38:44 10° 66° (ENE) 2,308 6.5 -12.2°
Maximum altitude 06:40:24 12° 86° (E) 2,200 6.8 -11.9°
Drops below altitude 10° 06:42:04 10° 105° (ESE) 2,301 7.0 -11.6°
Sets 06:46:10 0° 138° (SE) 3,220 7.1 -10.9°
